This is the latest recevied weather packets stored in our database for station/object K7DC. If no packets are shown the sender has not sent any weather packets the latest 10 day(s).
| Time | Temp. | Humidity | Pressure | Rain* | Wind** | Luminosity | Snow |
|---|---|---|---|---|---|---|---|
| 1777426786 | 26.11° C | 13% | 1014.5 hPa | 0 mm | - | 16 W/m² | - |
| 1777426483 | 26.11° C | 13% | 1014.3 hPa | 0 mm | - | 20 W/m² | - |
| 1777426179 | 26.67° C | 12% | 1014.2 hPa | 0 mm | - | 29 W/m² | - |
| 1777425874 | 26.67° C | 12% | 1014.3 hPa | 0 mm | - | 35 W/m² | - |
| 1777425570 | 27.22° C | 12% | 1014.4 hPa | 0 mm | - | 33 W/m² | - |
| 1777425265 | 27.22° C | 12% | 1014.4 hPa | 0 mm | - | 36 W/m² | - |
| 1777424962 | 27.78° C | 11% | 1014.2 hPa | 0 mm | - | 37 W/m² | - |
| 1777424658 | 27.78° C | 10% | 1014.3 hPa | 0 mm | - | 49 W/m² | - |
| 1777424353 | 27.78° C | 9% | 1014.3 hPa | 0 mm | - | 82 W/m² | - |
| 1777424049 | 27.78° C | 9% | 1014.3 hPa | 0 mm | - | 95 W/m² | - |
| 1777423746 | 28.33° C | 9% | 1014.3 hPa | 0 mm | - | 98 W/m² | - |
| 1777423442 | 28.33° C | 9% | 1014.4 hPa | 0 mm | - | 88 W/m² | - |
| 1777423137 | 28.89° C | 10% | 1014.4 hPa | 0 mm | - | 85 W/m² | - |
| 1777422832 | 28.89° C | 9% | 1014.2 hPa | 0 mm | - | 124 W/m² | - |
| 1777422528 | 28.89° C | 10% | 1014.1 hPa | 0 mm | - | 148 W/m² | - |
| 1777422223 | 28.89° C | 10% | 1014.2 hPa | 0 mm | - | 134 W/m² | - |
| 1777421923 | 28.89° C | 10% | 1014.1 hPa | 0 mm | - | 125 W/m² | - |
| 1777421618 | 28.89° C | 10% | 1014.2 hPa | 0 mm | - | 133 W/m² | - |
| 1777421313 | 29.44° C | 10% | 1014.1 hPa | 0 mm | - | 137 W/m² | - |
| 1777421010 | 30° C | 11% | 1013.9 hPa | 0 mm | - | 152 W/m² | - |
| 1777420706 | 30° C | 11% | 1014 hPa | 0 mm | - | 160 W/m² | - |
| 1777420403 | 30° C | 11% | 1014 hPa | 0 mm | - | 166 W/m² | - |
| 1777420099 | 30° C | 11% | 1013.9 hPa | 0 mm | - | 178 W/m² | - |
| 1777419796 | 30.56° C | 11% | 1014 hPa | 0 mm | - | 205 W/m² | - |
| 1777419494 | 30.56° C | 10% | 1013.8 hPa | 0 mm | - | 215 W/m² | - |
* Rain latest hour (hover to see other rain measurements)
** Current wind speed in m/s (hover to see current wind gust speed)